Overview Statistics Trail Chart Weather Telemetry Raw packets
 

This is the latest recevied weather packets stored in our database for station/object OE6JUE. If no packets are shown the sender has not sent any weather packets the latest 10 day(s).

<< 101 102 103 104 105 106 107 >>
Time Temp. Humidity Pressure Rain* Wind** Luminosity Snow
1787930612 30° C 50% 1014.5 hPa 0 mm - - -
1787930312 30° C 50% 1014.6 hPa 0 mm - - -
1787930012 29.44° C 50% 1014.8 hPa 0 mm - - -
1787929712 29.44° C 51% 1014.6 hPa 0 mm - - -
1787929412 28.89° C 51% 1014.8 hPa 0 mm - - -
1787929112 28.89° C 52% 1014.8 hPa 0 mm - - -
1787928812 28.89° C 52% 1014.8 hPa 0 mm - - -
1787928512 28.33° C 51% 1014.9 hPa 0 mm - - -
1787928212 28.33° C 51% 1014.9 hPa 0 mm - - -
1787927912 28.33° C 52% 1015 hPa 0 mm - - -
1787927611 28.33° C 51% 1015 hPa 0 mm - - -
1787927312 28.33° C 51% 1015 hPa 0 mm - - -
1787927012 28.33° C 51% 1015 hPa 0 mm - - -
1787926712 28.33° C 51% 1015.1 hPa 0 mm - - -
1787926412 28.33° C 51% 1014.9 hPa 0 mm - - -
1787926112 28.33° C 50% 1015.1 hPa 0 mm - - -
1787925812 28.33° C 50% 1015.1 hPa 0 mm - - -
1787925512 28.89° C 50% 1015.2 hPa 0 mm - - -
1787925212 28.89° C 50% 1015.2 hPa 0 mm - - -
1787924912 28.89° C 50% 1015.3 hPa 0 mm - - -
1787924612 29.44° C 47% 1015.5 hPa 0 mm - - -
1787924312 30° C 46% 1015.4 hPa 0 mm - - -
1787924020 30.56° C 45% 1015.4 hPa 0 mm - - -
1787923712 31.11° C 45% 1015.5 hPa 0 mm - - -
1787923412 30.56° C 44% 1015.6 hPa 0 mm - - -

* Rain latest hour (hover to see other rain measurements)
** Current wind speed in m/s (hover to see current wind gust speed)